Regional Weather Roundup
Issued by NWS

Home | Current Version | Previous Version | Text Only | Print | Product List | Glossary On
Versions: 1 2 3 4 5 6 7 8 9 10 11 12 13 14 15 16 17 18 19 20 21 22 23 24 25 26 27 28 29 30 31 32 33 34 35 36 37 38 39 40 41 42 43 44 45 46 47 48 49 50
000
ASCA44 KEWX 282120
RWRMX

LATIN AMERICA AND CARIBBEAN REGIONAL WEATHER ROUNDUP
NATIONAL WEATHER SERVICE AUSTIN/SAN ANTONIO TX
400 PM CDT TUE JUL 28 2015

NOTE: "FAIR" INDICATED FEW OR NO CLOUDS BELOW 12,000 FEET WITH NO
SIGNIFICANT WEATHER AND/OR OBSTRUCTIONS TO VISIBILITY.

BAJA CALIFORNIA

CITY           SKY/WX    TMP DP  RH WIND       PRES   REMARKS
LORETO         MOSUNNY   91  77  62 SE6       29.81S HX 105
LA PAZ         MOSUNNY   93  72  49 NW9       29.82  HX 100
MEXICALI       SUNNY    100  63  28 SE7       29.78  HX 102
S.J. DEL CABO  MOSUNNY   90  70  51 SE8       29.87F HX  95
TIJUANA        SUNNY     77  57  50 W14       29.91S

NORTHWESTERN MEXICO

CITY           SKY/WX    TMP DP  RH WIND       PRES   REMARKS
CULIACAN       PTSUNNY   99  77  49 SE6       29.89  HX 114
DURANGO        PTSUNNY   82  48  30 NE5       30.20
GUAYMAS        MOSUNNY   95  81  63 S12       29.77  HX 115
HERMOSILLO     MOSUNNY  100  66  32 SE8       29.84  HX 104
CD. JUAREZ     MOSUNNY   97  54  23 W10         N/A  HX  94
LOS MOCHIS     MOSUNNY   93  72  49 S17       29.83F HX 100
OBREGON        MOSUNNY   97  70  41 SW13      29.78  HX 103

NORTHEASTERN MEXICO

CITY           SKY/WX    TMP DP  RH WIND       PRES   REMARKS
CHIHUAHUA      PTSUNNY   88  54  31 SW14      30.06F
MATAMOROS      MOSUNNY   95  77  55 SE17      29.93  HX 109
MONCLOVA         N/A    N/A N/A N/A MISG        N/A
MONTERREY      SUNNY     95  61  31 E12       29.87F HX  95
NUEVO LAREDO   SUNNY    106  66  27 SE9       29.85  HX 111
PIEDRAS NEGRAS SUNNY     97  75  49 SE7       29.88F HX 109
REYNOSA        SUNNY     93  66  40 SE16G28   29.87  HX  96
SALTILLO       PTSUNNY   88  68  51 NW9       30.12F HX  91
TORREON        MOSUNNY   95  54  24 S3        30.01F HX  93
CD. VICTORIA   MOSUNNY   97  57  26 SE9G21    29.89  HX  95

WESTERN MEXICO

CITY           SKY/WX    TMP DP  RH WIND       PRES   REMARKS
AGUASCALIENTES SUNNY     81  43  26 W2        30.22
COLIMA         CLOUDY    84  77  79 E6        29.96F HX  94
DEL BAJIO      MOSUNNY   82  54  36 CALM      30.23F
GUADALAJARA    MOSUNNY   82  59  44 S6        30.13
MANZANILLO     MOSUNNY   90  77  66 SW12      29.81S HX 102
MAZATLAN       PTSUNNY   91  75  59 S12       29.82F HX 102
P. VALLARTA    MOSUNNY   90  79  70 SW9       29.82F HX 105
URUAPAN        PTSUNNY   77  63  61 S9        30.13F
ZACATECAS      MOSUNNY   79  43  27 SE9       30.28F

CENTRAL MEXICO

CITY           SKY/WX    TMP DP  RH WIND       PRES   REMARKS
CUERNAVACA     SUNNY     86  50  28 NW5       30.05F
MEXICO CITY    MOSUNNY   81  43  26 N14       30.26F
MORELIA        MOSUNNY   81  55  41 CALM      30.17
POZA RICA      MOSUNNY   95  75  52 SE9       29.90F HX 107
PUEBLA         SUNNY     79  39  24 N2        30.27F
QUERETARO      PTSUNNY   81  54  39 E3        30.24F
S. LUIS POTOSI MOSUNNY   82  46  28 NE12      30.19F
TAMPICO        MOSUNNY   88  75  66 E14       29.91F HX  97
TOLUCA         PTSUNNY   72  48  43 NW6       30.34F

SOUTHERN MEXICO

CITY           SKY/WX    TMP DP  RH WIND       PRES   REMARKS
ACAPULCO       MOSUNNY   90  79  70 SW10      29.79F HX 105
B. DE HUATULCO CLOUDY    84  77  79 E12       29.89  HAZE    HX  94
OAXACA         CLOUDY    81  52  36 CALM      30.16F
P. ESCONDIDO   PTSUNNY   86  73  66 S13       29.91F HX  93
VERACRUZ       MOSUNNY   91  79  66 E10       29.90F HX 107
ZIHUATANEJO    MOSUNNY   93  82  70 SW10      29.81F HX 117

YUCATAN PENINSULA

CITY           SKY/WX    TMP DP  RH WIND       PRES   REMARKS
CAMPECHE       MOSUNNY   90  77  66 N12G23    29.84F HX 102
CANCUN         MOSUNNY   90  73  58 SE15      29.98F HX  98
CHETUMAL       MOSUNNY   88  77  70 SE12      29.94  HX 100
CD. DEL CARMEN PTSUNNY   88  77  70 N16       29.87  HX 100
COZUMEL        MOSUNNY   88  75  66 SE14      29.97S HX  97
MERIDA         PTSUNNY   93  75  55 N17G29    29.90F HX 104
MINATITLAN     PTSUNNY   86  77  74 N12G23    29.83  HX  97
TAPACHULA      PTSUNNY   91  79  66 CALM      29.80F HX 107
TUX. GUTIERREZ PTSUNNY   91  55  29 W6        29.88F
VILLAHERMOSA   PTSUNNY   95  70  43 NE14      29.86F HX 101

CENTRAL AMERICA

CITY           SKY/WX    TMP DP  RH WIND       PRES   REMARKS
BELIZE CITY    MOSUNNY   86  77  74 E13       29.93R HX  97
MANAGUA        PTCLDY    91  70  49 E16       29.74F HX  97

CARIBBEAN

CITY           SKY/WX    TMP DP  RH WIND       PRES   REMARKS
ARUBA          MOSUNNY   86  79  79 E28       29.83S HX  99
CURACAO        MOSUNNY   86  75  70 E13       29.86F HX  95
KINGSTON       MOSUNNY   90  75  62 SE28      29.89S HX 100
SAN JUAN       MOSUNNY   86  75  70 E17G25    29.99S HX  95
SANTO DOMINGO  MOSUNNY   90  73  58 SE16      29.94S HX  98
ST. CROIX      MOSUNNY   86  72  62 E14       29.99F HX  92
ST. THOMAS     MOSUNNY   88  73  62 E9        29.99S HX  96

$$




USA.gov is the U.S. government's official web portal to all federal, state and local government web resources and services.